CAPE
1165 1346 1882 1999 2258 2381 2241 1946 1663 1043 903 789 415 326 277 296 356 531 551 532 429 415 320 284 180 319 216 218 245 212 346 350 346 400 419 390 686 873 1101 1182 1330 1276 1118 595 523 509 368 191 87 51 13 3 1 0 0 0 0 0 0 1 33 187 164 43 0 1 1 0 1 4 4 3 2 0 0 1 0 0 0 0 0 0 0 0 0
1579 1557 1839 2189 2332 2569 2080 2374 1934 1446 1459 956 520 353 307 292 195 348 275 411 308 282 302 228 181 176 168 185 204 302 322 375 277 247 237 399 514 838 990 1319 1328 1314 1225 1412 670 642 455 375 214 114 30 3 1 0 0 0 0 0 1 1 85 167 170 94 26 0 0 0 0 0 0 0 0 0 2 1 1 1 1 1 0 0 0 0 0
2099 2078 1922 2068 2154 2164 2322 2079 1998 1815 1538 723 784 545 483 428 130 141 371 286 254 280 248 297 253 161 279 144 158 302 258 262 267 150 199 180 284 477 1296 1309 1348 1375 1354 1188 1336 708 632 507 438 164 104 39 9 1 0 0 0 0 2 4 158 143 170 146 34 0 0 0 0 0 0 1 1 0 1 1 1 1 2 2 0 0 0 0 0
2900 2573 1942 1568 1816 2252 2318 2099 1310 1637 1479 1210 1197 715 667 177 111 235 185 293 380 357 327 281 319 119 218 144 135 195 215 289 232 228 138 162 168 338 342 1005 1429 1503 1374 1252 1291 1335 1022 692 516 324 200 124 65 9 13 0 1 0 0 2 41 82 80 206 46 4 0 0 1 0 0 0 1 1 0 0 0 0 0 0 0 0 0 0 0
3064 2749 2127 2049 2409 2386 2282 2035 1363 1842 1741 1424 1029 1330 606 296 224 200 245 490 454 466 312 306 338 521 664 341 137 121 77 160 217 217 122 137 148 224 381 380 1022 1381 1275 1386 1165 1158 1299 1128 560 501 381 279 168 82 46 0 0 0 0 1 34 80 23 113 188 32 1 0 0 0 0 0 1 0 0 0 1 0 0 0 0 0 0 0 0
2448 2511 2515 2433 2465 2330 2170 1830 1663 1570 1695 1363 1506 1152 935 631 494 365 336 348 580 795 522 281 257 517 613 749 574 286 208 135 258 208 293 188 196 194 226 423 538 862 1257 1510 1364 1167 1047 1080 1235 830 499 390 276 212 141 67 13 0 0 1 6 37 8 11 170 121 10 0 0 0 0 0 0 1 0 0 0 0 0 0 0 0 0 0 0
2233 2576 2613 2433 2229 2328 1922 1847 1603 1884 1616 1530 1426 694 670 885 1006 459 694 548 480 444 939 1239 623 523 522 838 564 457 595 207 203 284 187 306 292 162 205 296 440 495 454 1146 1434 1145 1028 977 1207 1284 1038 577 436 308 232 166 78 13 0 0 0 0 1 0 12 242 30 4 0 1 0 0 0 0 0 0 0 0 0 0 0 0 0 0 0
2433 2443 2510 2317 2201 2209 2082 1916 1854 1871 1490 1801 1582 651 913 1472 1278 1156 864 612 637 1032 818 454 504 552 475 604 413 696 642 215 147 145 157 118 40 94 188 268 479 428 419 586 739 1241 991 912 903 925 1161 1054 600 418 404 267 133 78 53 16 1 0 0 0 0 177 134 39 2 0 0 0 0 0 0 0 0 0 0 0 0 0 0 0 0
2222 2169 2256 2163 2103 1918 2074 1974 1608 1138 1112 1219 1217 1148 1455 1349 1474 1563 1476 1269 692 574 811 1005 642 510 528 409 569 555 250 187 232 147 66 58 41 59 78 121 205 350 518 383 544 557 1065 796 800 759 780 922 1046 638 487 309 302 176 176 79 67 20 8 0 0 6 214 95 33 0 0 0 0 0 0 0 0 0 0 0 0 0 0 0 0
1856 1829 2077 2022 1822 1820 1822 1633 1296 1010 1017 944 1368 1084 1400 1172 1292 1118 1043 1010 712 617 702 1022 646 510 598 377 476 653 430 307 303 227 190 82 31 33 76 258 292 350 328 398 481 507 892 1017 726 636 647 616 679 1092 778 624 465 342 241 96 66 60 83 51 0 0 25 177 94 14 0 0 0 0 0 0 0 0 0 0 0 0 0 0 0
1372 1519 1715 1631 1630 1360 1115 984 1180 1177 1154 840 1071 731 958 1346 831 950 1037 978 939 962 1030 790 434 496 546 789 740 355 655 458 309 324 264 165 94 61 114 182 130 284 292 365 277 244 306 507 1027 885 868 375 571 933 1024 1019 773 522 280 228 118 117 105 148 87 0 0 135 189 68 20 0 0 0 0 0 0 0 0 0 0 0 0 0 0
470 556 772 1073 1236 1213 926 1037 1077 1058 1033 786 728 796 1056 1366 1392 1214 1212 1144 967 1513 1195 599 723 533 714 732 540 394 79 486 622 576 406 307 399 390 265 243 194 158 160 153 203 203 141 171 222 281 440 564 373 624 845 932 1006 1054 806 365 184 197 148 176 204 147 18 0 232 183 88 2 0 0 0 0 0 0 0 0 0 0 0 0 0
132 320 402 471 668 1450 1281 752 702 591 657 833 746 646 1069 1159 1187 1021 921 1260 1307 621 1086 774 670 434 951 909 904 440 230 525 343 238 352 365 640 651 740 649 436 247 258 163 203 221 213 133 124 72 122 297 1017 429 463 646 721 929 1059 775 575 366 278 233 274 267 236 66 90 323 183 16 0 0 0 0 0 0 0 0 0 0 0 0 0
65 142 264 267 243 362 664 694 1188 1016 852 534 330 519 652 586 517 606 415 602 735 1193 1117 963 596 811 732 738 810 899 282 242 508 42 416 353 579 746 722 821 893 895 582 312 289 112 90 180 124 108 136 83 113 831 962 859 710 617 1037 1133 869 700 495 382 347 379 371 312 83 424 284 53 0 0 0 0 0 0 0 0 0 0 0 0 0
13 13 44 40 101 155 276 415 412 594 674 473 444 697 644 477 404 476 445 517 607 1275 1388 893 907 1012 1047 402 381 370 1498 597 353 34 318 69 77 239 377 448 392 566 645 883 466 370 294 279 220 191 240 166 49 42 250 482 419 760 634 930 1071 1016 785 626 464 452 482 468 237 352 387 118 7 0 0 0 0 0 0 0 0 0 0 0 0
2 4 5 19 70 103 129 109 210 343 332 230 329 280 437 424 446 348 326 561 361 720 1279 971 1586 1078 419 563 783 69 66 415 930 584 44 22 82 124 434 367 508 528 642 1045 1178 1054 785 588 492 388 468 362 168 68 18 81 124 512 645 526 626 956 1091 963 751 600 489 488 364 360 484 227 76 2 0 0 0 0 0 0 0 0 0 0 0
1 2 2 1 18 61 66 70 58 85 50 17 73 94 208 327 346 525 324 383 340 558 978 1018 935 944 929 432 311 270 231 322 421 744 642 313 91 9 275 329 310 532 664 788 924 1186 1081 1052 901 651 683 702 568 407 200 86 82 531 1110 656 600 543 760 1117 1185 979 684 458 339 347 630 287 180 64 1 0 0 0 0 0 0 0 0 0 0
0 1 2 4 13 34 82 15 23 33 24 14 4 4 2 19 171 305 423 700 708 572 641 1031 1106 1245 1232 866 275 750 490 274 207 146 391 722 664 315 126 120 501 686 719 650 854 603 903 1276 1191 1310 1252 1182 816 424 306 291 303 219 466 1126 648 592 502 589 1074 1228 1267 948 645 330 255 468 292 136 26 0 0 0 0 0 0 0 0 0 0
7 6 2 1 7 10 20 10 2 7 8 14 6 6 0 2 26 47 121 227 367 414 472 316 443 827 893 625 1171 898 833 440 138 184 155 214 415 696 358 201 174 226 359 328 726 784 918 955 962 827 985 999 1053 892 622 438 310 357 339 486 723 706 683 506 396 994 1236 1281 1238 613 347 526 439 204 77 15 0 0 0 0 0 0 0 0 0
9 6 7 3 12 2 0 0 0 0 0 0 0 0 0 4 16 32 18 42 64 202 282 64 268 436 673 694 624 398 741 681 427 336 373 232 273 762 564 390 271 208 447 465 747 720 1028 967 800 769 855 871 1113 1190 1257 1220 1116 834 762 582 498 667 772 755 606 436 510 1149 1301 1318 618 434 533 352 153 38 3 0 0 0 0 0 0 0 0
0 1 0 0 0 0 0 0 0 0 0 0 0 0 1 7 10 17 25 33 18 12 11 6 24 84 49 94 118 120 279 474 352 227 207 156 109 309 336 520 274 232 632 698 598 679 723 667 591 375 649 786 849 893 940 1149 1270 1480 1395 1004 797 383 0 249 415 451 400 315 643 1214 1350 429 630 550 256 81 11 0 0 0 3 9 0 0 0
0 0 0 0 0 0 0 0 0 0 0 0 0 0 0 0 0 4 6 6 3 11 19 8 2 8 7 8 11 16 26 60 71 23 78 157 47 51 53 80 237 457 197 7 3 146 342 457 568 214 137 412 548 705 843 963 1359 1284 947 688 565 442 14 0 0 99 203 231 237 310 864 759 454 423 452 207 94 8 0 0 0 16 15 0 0
0 0 0 0 0 0 0 0 0 0 0 0 0 0 0 0 0 0 0 0 0 0 0 0 0 0 0 0 0 0 0 1 0 0 0 0 1 2 3 1 1 4 30 26 62 83 7 2 8 13 290 464 454 458 602 921 921 642 586 496 206 133 0 0 0 0 21 110 22 13 325 692 712 390 427 394 246 99 0 0 0 0 2 7 0
0 0 0 0 0 0 0 0 0 0 0 0 0 0 0 0 0 0 0 0 0 0 0 0 0 0 0 0 0 0 0 0 0 0 0 0 0 0 0 0 0 0 0 0 0 1 0 1 9 29 81 99 381 489 461 353 341 259 587 329 93 130 24 0 0 0 0 0 0 0 27 340 676 655 514 457 335 242 115 5 1 0 0 0 0
0 0 0 0 0 0 0 0 0 0 0 0 0 0 0 0 0 0 0 0 0 0 0 0 0 0 0 0 0 0 0 0 0 0 0 0 0 0 0 0 0 0 0 0 0 0 0 1 38 37 83 177 158 103 125 136 314 393 122 482 302 0 0 0 0 0 0 0 0 0 0 10 412 696 798 554 460 442 320 182 145 93 0 0 0
0 0 0 0 0 0 0 0 0 0 0 0 0 0 0 0 0 0 0 0 0 0 0 0 0 0 0 0 0 0 0 0 0 0 0 0 0 0 0 0 0 0 0 0 0 0 0 1 18 37 25 44 92 81 155 111 152 179 19 171 297 177 120 0 0 0 0 0 17 17 0 0 0 168 572 650 429 341 319 301 278 140 54 0 0
0 0 0 0 0 0 0 0 0 0 0 0 0 0 0 0 0 0 0 0 0 0 0 0 0 0 0 0 0 0 0 0 0 0 0 0 0 0 0 0 0 0 0 0 0 0 0 0 0 0 0 33 26 66 41 101 7 284 9 562 411 140 249 0 0 0 0 0 0 55 55 34 6 0 0 0 408 345 340 314 129 157 71 0 0
0 2 0 0 0 0 0 0 0 0 0 0 0 0 0 0 0 0 0 0 0 0 0 0 0 0 0 0 0 0 0 0 0 0 0 0 0 0 0 0 0 0 0 0 0 0 0 0 0 0 0 5 5 2 8 25 218 129 14 266 153 150 370 0 0 0 0 0 0 0 45 52 48 49 0 0 0 132 349 328 246 135 58 0 0
0 5 0 0 0 0 0 0 0 0 0 0 0 0 0 0 0 0 0 0 0 0 0 0 0 0 0 0 0 0 0 0 0 0 0 0 0 0 0 0 0 0 0 0 0 0 0 0 0 0 0 0 21 19 1 25 83 0 22 29 87 189 13 0 0 0 0 0 0 0 0 0 4 0 0 0 0 0 0 350 332 200 178 97 0
3 8 49 36 3 0 0 0 0 0 0 0 0 0 0 0 0 0 0 0 0 0 0 0 0 0 0 0 0 0 0 0 0 0 0 0 0 0 0 0 0 0 0 0 0 0 0 0 0 0 11 5 3 1 13 5 44 0 0 2 10 22 172 0 0 0 0 0 0 0 0 0 0 0 0 67 109 0 124 142 250 205 205 153 0
34 34 90 77 47 15 1 0 0 0 0 0 0 0 0 0 0 0 0 0 0 0 0 0 0 0 0 0 0 0 0 0 0 0 0 0 0 0 0 0 0 0 0 0 0 0 0 0 0 0 0 0 0 0 0 0 0 0 0 0 0 45 0 62 0 0 0 0 0 0 0 0 0 0 0 30 66 103 154 216 248 225 257 274 161
39 62 56 58 83 56 18 0 0 0 0 0 0 0 0 0 0 0 0 0 0 0 0 0 0 0 0 0 0 0 0 0 0 0 0 0 0 0 0 0 0 0 0 0 0 0 0 0 0 0 0 0 0 0 0 0 0 2 0 0 0 0 0 0 0 0 0 0 0 0 0 0 0 0 0 4 36 59 100 158 236 278 239 243 237
69 50 32 60 58 75 32 11 0 0 0 0 0 0 0 0 0 0 0 0 0 0 0 0 0 0 0 0 0 0 0 0 0 0 0 0 0 0 0 0 0 0 0 0 0 0 0 0 0 0 0 0 0 0 0 0 0 0 0 0 0 0 0 0 199 0 0 0 0 0 0 0 0 0 0 0 0 16 44 111 160 207 263 271 250
195 113 28 77 89 69 39 13 0 0 0 0 0 0 0 0 0 0 0 0 0 0 0 0 0 0 0 0 0 0 0 0 0 0 0 0 0 0 0 0 0 0 0 0 0 0 0 0 0 0 0 0 0 0 0 0 0 0 0 0 0 0 0 0 0 20 0 0 0 0 0 0 0 0 0 0 0 0 0 61 129 167 196 230 244
383 231 43 139 115 63 70 33 2 0 0 0 0 0 0 0 0 0 0 0 0 0 0 0 0 0 0 0 0 0 0 0 0 0 0 0 0 0 0 0 0 0 0 0 0 0 0 0 0 0 0 0 0 0 0 0 0 0 0 0 0 0 0 0 0 0 6 0 0 0 0 0 0 0 0 0 0 0 0 0 0 62 0 198 209
574 386 114 249 117 72 88 53 10 0 0 0 0 0 0 0 0 0 0 0 0 0 0 0 0 0 0 0 0 0 0 0 0 0 0 0 0 0 0 0 0 0 0 0 0 0 0 0 0 0 0 0 0 0 0 0 0 0 0 0 0 0 0 0 0 0 7 0 0 0 0 0 0 0 0 0 0 0 0 0 0 28 115 9 183
633 516 307 386 135 106 163 77 8 0 0 0 0 0 0 0 0 0 0 0 0 0 0 0 0 0 0 0 0 0 0 0 0 0 0 0 0 0 0 0 0 0 0 0 0 0 0 0 0 0 0 0 0 0 0 0 0 0 0 0 0 0 0 0 0 0 6 0 0 0 0 0 0 0 0 0 0 0 0 9 62 72 198 215 223
630 589 547 368 238 142 211 58 1 0 0 0 0 0 0 0 0 0 0 0 0 0 0 0 0 0 0 0 0 0 0 0 0 0 0 0 0 0 0 0 0 0 0 0 0 0 0 0 0 0 0 0 0 0 0 0 0 0 0 0 0 0 0 0 0 0 0 3 12 4 0 0 0 0 0 0 0 0 0 0 51 77 120 242 286
616 655 570 161 115 196 152 29 0 0 0 0 0 0 0 0 0 0 0 0 0 0 0 0 0 0 0 0 0 0 0 0 0 0 0 0 0 0 0 0 0 0 0 0 0 0 0 0 0 0 0 0 0 0 0 0 0 0 0 0 0 0 0 0 0 0 0 0 1 0 0 0 0 0 0 0 0 0 0 0 0 63 89 141 304
645 576 140 38 234 78 124 29 0 0 0 0 0 0 0 0 0 0 0 0 0 0 0 0 0 0 0 0 0 0 0 0 0 0 0 0 0 0 0 0 0 0 0 0 0 0 0 0 0 0 0 0 0 0 0 0 0 0 0 0 0 0 0 0 0 1 0 0 0 78 4 0 0 0 0 0 0 0 0 0 0 0 89 137 195
555 568 392 146 196 80 119 20 2 0 0 0 0 0 0 0 0 0 0 0 0 0 0 0 0 0 0 0 0 0 0 0 0 0 0 0 0 0 0 0 0 0 0 0 0 0 0 0 0 0 0 0 0 0 0 0 0 0 0 0 0 0 0 0 0 0 0 0 0 0 7 15 1 0 1 6 12 0 0 0 0 0 0 22 126
647 610 419 343 299 89 157 162 214 80 46 40 28 0 0 0 0 0 0 0 0 0 0 0 0 0 0 0 0 0 0 0 0 0 0 0 0 0 0 0 0 0 0 0 0 0 0 0 0 0 0 0 0 0 0 0 0 0 0 0 0 0 0 0 0 0 0 0 0 0 0 0 0 0 0 0 2 4 6 0 0 0 0 0 0
694 518 469 496 405 77 3 255 252 216 161 134 35 38 3 0 0 0 0 0 0 0 0 0 0 0 0 0 0 0 0 0 0 0 0 0 0 0 0 0 0 0 0 0 0 0 0 0 0 0 0 0 0 0 0 0 0 0 0 0 0 0 0 0 0 0 0 1 0 0 0 0 0 0 0 0 0 0 2 1 0 0 0 0 0
469 553 518 485 485 426 192 216 285 193 100 33 52 23 0 0 0 0 0 0 0 0 0 0 0 0 0 0 0 0 0 0 0 0 0 0 0 0 0 0 0 0 0 0 0 0 0 0 0 0 0 0 0 0 0 0 0 0 0 0 0 0 0 0 0 0 0 11 3 0 0 0 0 1 0 0 0 11 5 1 0 0 0 0 0
424 607 627 627 548 329 274 330 306 83 142 162 76 74 30 1 0 0 0 0 0 0 0 0 0 0 0 0 0 0 0 0 0 0 0 0 0 0 0 0 0 0 0 0 0 0 0 0 0 0 0 0 0 0 0 0 0 0 0 0 0 0 0 0 0 0 0 1 2 0 0 0 0 0 0 0 4 22 5 0 0 0 0 0 0
630 704 709 755 749 577 348 260 242 298 224 218 80 54 8 0 0 0 0 0 0 0 0 0 0 0 0 0 0 0 0 0 0 0 0 0 0 0 0 0 0 0 0 0 0 0 0 0 0 0 0 0 0 0 0 0 0 0 0 0 0 0 0 0 0 0 0 0 0 0 0 0 0 0 0 0 5 18 3 0 0 0 0 0 0
506 718 798 826 843 792 659 537 424 306 434 296 428 192 1 0 0 0 0 0 0 0 0 0 0 0 0 0 0 0 0 0 0 0 0 0 0 0 0 0 0 0 0 0 1 0 1 0 0 0 0 0 0 0 0 0 0 0 0 1 5 2 3 1 0 1 1 0 0 0 0 0 0 0 0 0 3 4 0 0 0 0 0 0 6
217 397 516 494 510 520 513 397 393 253 398 351 120 1 20 0 0 0 0 0 0 0 0 0 0 0 0 0 0 0 0 0 0 0 0 0 0 0 0 0 0 0 0 0 0 0 0 1 0 2 1 0 0 2 0 0 0 1 0 1 4 4 5 2 0 0 0 0 0 0 0 0 0 0 0 0 2 8 0 0 0 0 0 0 0
189 308 333 337 312 256 240 218 126 214 180 224 126 76 10 0 0 0 0 0 0 0 0 0 0 0 0 0 0 0 0 0 0 0 0 0 0 0 0 0 0 0 0 0 0 0 0 0 0 0 0 0 0 0 0 0 0 0 0 0 2 2 3 2 0 0 0 0 0 0 0 0 0 0 0 0 1 6 3 3 2 0 0 0 12
234 125 0 155 163 213 126 3 44 148 155 179 85 29 10 1 0 0 0 0 0 0 0 0 0 0 0 0 0 0 0 0 0 0 0 0 0 0 0 0 0 0 0 0 0 0 0 0 0 0 0 0 0 0 0 0 0 0 0 1 2 0 0 0 0 0 0 0 0 1 0 0 0 0 0 0 4 0 1 1 0 0 0 0 0
311 179 53 141 169 11 71 15 27 21 59 21 7 10 2 0 0 0 0 0 0 0 0 0 0 0 0 0 0 0 0 0 0 0 0 0 0 0 0 0 0 0 0 2 0 0 0 2 2 2 1 2 0 0 0 0 0 0 0 0 2 2 0 0 0 2 0 0 0 0 0 0 0 0 0 3 6 9 0 0 0 0 0 1 0
Wind_Speed
10 11 14 13 14 14 14 14 17 15 14 17 18 19 18 19 21 20 21 21 17 17 20 23 24 25 25 24 24 23 21 19 18 18 21 24 24 26 23 22 22 23 23 24 24 25 24 24 nan nan nan nan nan nan nan nan nan nan nan nan nan 20 19 nan nan nan nan nan nan nan nan nan nan nan nan nan nan nan nan nan nan nan nan nan nan
13 14 14 15 15 16 16 15 16 17 17 17 17 18 19 19 19 20 21 22 21 20 21 23 23 24 25 24 24 23 22 21 19 19 21 22 24 27 23 24 23 23 23 25 23 24 25 25 25 26 nan nan nan nan nan nan nan nan nan nan nan 23 20 nan nan nan nan nan nan nan nan nan nan nan nan nan nan nan nan nan nan nan nan nan nan
14 16 14 14 16 17 16 16 16 16 16 15 17 19 20 19 18 20 21 20 20 22 20 22 24 24 24 24 25 25 24 23 22 21 21 22 23 24 24 23 22 21 22 22 24 23 24 25 24 25 25 nan nan nan nan nan nan nan nan nan 25 25 22 20 nan nan nan nan nan nan nan nan nan nan nan nan nan nan nan nan nan nan nan nan nan
20 18 16 17 14 17 17 16 15 15 14 14 13 18 20 18 20 22 21 20 22 22 21 22 26 27 25 24 26 26 25 25 23 22 21 23 23 23 25 23 22 21 19 19 21 22 22 23 24 23 24 23 nan nan nan nan nan nan nan nan nan nan nan 22 nan nan nan nan nan nan nan nan nan nan nan nan nan nan nan nan nan nan nan nan nan
22 20 18 17 19 20 18 18 15 15 14 12 11 19 17 18 20 21 21 23 23 24 22 23 27 29 29 27 26 27 nan 25 24 23 22 22 22 22 22 23 23 20 19 19 19 20 21 21 22 22 22 22 22 nan nan nan nan nan nan nan nan nan nan 23 20 nan nan nan nan nan nan nan nan nan nan nan nan nan nan nan nan nan nan nan nan
22 23 21 21 20 21 21 18 17 17 17 16 16 21 17 16 21 23 23 23 24 25 24 25 28 30 28 29 27 28 28 26 26 24 24 23 23 23 21 22 22 22 21 19 19 20 20 22 22 21 21 21 20 21 22 nan nan nan nan nan nan nan nan nan 22 19 nan nan nan nan nan nan nan nan nan nan nan nan nan nan nan nan nan nan nan
26 25 23 22 21 22 21 21 21 23 20 20 18 18 20 16 20 24 23 23 23 25 28 30 30 33 30 28 28 27 28 28 27 26 25 24 24 22 22 21 22 23 23 23 20 20 20 21 21 21 20 19 19 20 20 22 nan nan nan nan nan nan nan nan nan 20 nan nan nan nan nan nan nan nan nan nan nan nan nan nan nan nan nan nan nan
26 26 23 22 22 22 23 24 25 25 23 21 22 18 22 21 24 24 23 23 23 27 31 31 35 37 33 30 30 28 27 28 28 28 27 27 nan nan 24 23 23 22 24 24 24 21 21 21 20 19 20 19 17 18 19 20 24 nan nan nan nan nan nan nan nan 21 18 nan nan nan nan nan nan nan nan nan nan nan nan nan nan nan nan nan nan
25 26 25 23 23 22 23 25 25 26 25 26 24 21 25 25 25 26 25 25 24 25 29 29 26 31 39 35 32 31 28 28 28 29 nan nan nan nan nan 24 24 25 23 23 24 24 21 20 19 19 17 18 17 15 17 19 20 22 23 nan nan nan nan nan nan nan 18 nan nan nan nan nan nan nan nan nan nan nan nan nan nan nan nan nan nan
25 25 25 24 24 23 23 24 28 26 24 24 24 24 26 26 24 23 24 24 23 25 28 28 26 30 33 38 36 34 34 30 29 30 30 nan nan nan nan 29 27 25 25 25 24 24 24 21 19 17 16 17 16 15 13 15 17 19 20 nan nan nan nan nan nan nan nan 17 nan nan nan nan nan nan nan nan nan nan nan nan nan nan nan nan nan
25 25 24 25 26 26 27 27 28 28 26 25 24 24 25 23 23 22 23 23 23 24 27 28 27 27 32 35 34 36 37 34 30 28 28 30 nan nan 31 28 27 27 26 26 24 25 24 23 21 19 18 16 16 16 13 13 13 16 17 19 20 20 19 17 nan nan nan 18 17 nan nan nan nan nan nan nan nan nan nan nan nan nan nan nan nan
24 24 23 25 25 27 28 29 31 30 29 26 24 23 22 22 22 22 21 24 25 26 27 29 29 30 31 34 34 33 nan 45 38 31 31 32 34 34 33 32 30 29 27 28 27 27 26 25 24 22 20 20 15 15 14 14 14 13 13 15 17 18 18 16 16 16 nan nan 19 18 nan nan nan nan nan nan nan nan nan nan nan nan nan nan nan
25 24 24 23 24 27 28 30 30 29 27 27 25 23 23 24 25 25 22 23 24 25 27 28 29 27 27 29 32 34 38 42 43 37 35 34 34 35 35 34 33 31 31 30 29 28 27 26 25 nan 23 23 22 17 15 15 15 14 12 11 11 14 15 15 15 14 15 nan nan 20 22 nan nan nan nan nan nan nan nan nan nan nan nan nan nan
nan 26 25 25 24 25 28 30 29 30 30 30 29 27 26 26 26 25 24 23 25 30 30 31 29 27 27 29 30 34 35 39 40 nan 43 39 37 37 36 35 34 34 34 33 31 29 nan 28 26 26 25 nan 23 24 20 17 15 14 14 12 11 10 12 15 15 13 14 16 nan 21 24 nan nan nan nan nan nan nan nan nan nan nan nan nan nan
nan nan nan nan 26 27 29 30 30 31 31 31 30 29 28 28 29 26 27 25 27 29 30 28 29 29 29 28 28 31 37 39 38 nan 48 nan nan 39 37 35 34 37 36 35 33 33 32 30 29 27 26 25 nan nan 24 21 18 19 15 14 12 10 10 11 14 13 13 14 16 21 24 27 nan nan nan nan nan nan nan nan nan nan nan nan nan
nan nan nan nan nan 28 29 31 32 33 32 32 32 32 30 30 31 29 27 29 29 27 28 27 25 26 24 22 21 nan nan 37 40 44 nan nan nan 44 42 40 39 38 38 38 37 36 35 32 30 31 29 27 27 nan nan nan 26 25 20 17 14 13 11 10 12 13 14 13 14 19 25 27 nan nan nan nan nan nan nan nan nan nan nan nan nan
nan nan nan nan nan nan nan nan nan nan nan nan nan nan 32 31 29 28 29 30 30 30 29 28 25 20 22 22 17 16 22 32 35 39 44 46 nan nan 42 40 42 43 39 38 39 37 37 35 34 35 32 30 30 29 29 nan nan 28 26 21 18 15 14 12 13 12 13 14 16 15 24 27 27 nan nan nan nan nan nan nan nan nan nan nan nan
nan nan nan nan nan nan nan nan nan nan nan nan nan nan nan nan 31 30 31 33 31 30 30 29 24 23 21 20 21 17 19 21 25 28 37 41 44 41 43 38 39 43 43 41 40 38 40 40 40 39 37 35 34 32 31 29 29 29 28 29 23 19 16 16 15 15 13 14 14 17 21 26 28 28 nan nan nan nan nan nan nan nan nan nan nan
nan nan nan nan nan nan nan nan nan nan nan nan nan nan nan nan nan nan 31 32 32 29 31 31 27 27 23 22 23 20 18 18 17 20 23 32 38 43 42 34 34 37 39 39 41 42 42 43 43 40 40 40 38 36 34 32 30 30 30 31 30 23 21 19 17 17 16 15 15 17 19 25 27 29 nan nan nan nan nan nan nan nan nan nan nan
nan nan nan nan nan nan nan nan nan nan nan nan nan nan nan nan nan nan nan nan nan 32 32 nan 29 30 28 29 29 25 23 21 20 18 18 21 28 37 42 42 38 34 33 37 42 44 44 43 42 40 43 43 42 40 38 36 34 33 32 30 33 32 26 23 21 21 20 18 16 17 19 24 27 29 29 nan nan nan nan nan nan nan nan nan nan
nan nan nan nan nan nan nan nan nan nan nan nan nan nan nan nan nan nan nan nan nan nan nan nan nan nan nan nan 31 30 29 31 29 24 20 18 24 31 34 37 39 35 34 39 39 41 42 42 41 43 44 44 44 42 41 39 38 36 35 38 33 31 nan 28 26 24 24 24 21 18 18 25 28 30 31 nan nan nan nan nan nan nan nan nan nan
nan nan nan nan nan nan nan nan nan nan nan nan nan nan nan nan nan nan nan nan nan nan nan nan nan nan nan nan nan nan nan nan nan nan nan 21 nan nan nan nan 32 34 33 nan nan 32 37 39 39 38 39 42 45 45 43 41 40 37 39 42 39 34 nan nan nan nan 27 27 26 22 20 25 29 28 30 31 nan nan nan nan nan nan nan nan nan
nan nan nan nan nan nan nan nan nan nan nan nan nan nan nan nan nan nan nan nan nan nan nan nan nan nan nan nan nan nan nan nan nan nan nan nan nan nan nan nan nan nan nan nan nan nan nan nan nan nan 30 34 40 43 43 41 40 37 46 42 39 37 nan nan nan nan nan 27 nan nan 23 26 28 27 29 31 30 nan nan nan nan nan nan nan nan
nan nan nan nan nan nan nan nan nan nan nan nan nan nan nan nan nan nan nan nan nan nan nan nan nan nan nan nan nan nan nan nan nan nan nan nan nan nan nan nan nan nan nan nan nan nan nan nan nan nan nan nan 32 38 41 39 36 36 33 32 nan 34 nan nan nan nan nan nan nan nan nan 22 26 27 28 29 30 31 31 nan nan nan nan nan nan
nan nan nan nan nan nan nan nan nan nan nan nan nan nan nan nan nan nan nan nan nan nan nan nan nan nan nan nan nan nan nan nan nan nan nan nan nan nan nan nan nan nan nan nan nan nan nan nan nan nan nan 28 27 31 36 38 36 38 31 31 29 nan nan nan nan nan nan nan nan nan nan nan 24 25 25 28 29 29 29 29 30 nan nan nan nan
nan nan nan nan nan nan nan nan nan nan nan nan nan nan nan nan nan nan nan nan nan nan nan nan nan nan nan nan nan nan nan nan nan nan nan nan nan nan nan nan nan nan nan nan nan nan nan nan nan nan nan nan nan nan 32 34 36 43 nan 33 35 35 34 nan nan nan nan nan nan nan nan nan nan 24 23 25 30 31 30 31 31 30 nan nan nan
nan nan nan nan nan nan nan nan nan nan nan nan nan nan nan nan nan nan nan nan nan nan nan nan nan nan nan nan nan nan nan nan nan nan nan nan nan nan nan nan nan nan nan nan nan nan nan nan nan nan nan nan nan nan nan 30 nan 45 nan 35 35 36 35 nan nan nan nan nan nan nan nan nan nan nan nan nan 29 32 34 33 31 31 nan nan nan
nan nan nan nan nan nan nan nan nan nan nan nan nan nan nan nan nan nan nan nan nan nan nan nan nan nan nan nan nan nan nan nan nan nan nan nan nan nan nan nan nan nan nan nan nan nan nan nan nan nan nan nan nan nan nan nan 36 44 nan 34 35 38 39 nan nan nan nan nan nan nan nan nan nan nan nan nan nan 30 35 36 35 34 nan nan nan
nan nan nan nan nan nan nan nan nan nan nan nan nan nan nan nan nan nan nan nan nan nan nan nan nan nan nan nan nan nan nan nan nan nan nan nan nan nan nan nan nan nan nan nan nan nan nan nan nan nan nan nan nan nan nan nan nan nan nan nan nan 35 nan nan nan nan nan nan nan nan nan nan nan nan nan nan nan nan nan 37 38 39 39 nan nan
nan nan nan nan nan nan nan nan nan nan nan nan nan nan nan nan nan nan nan nan nan nan nan nan nan nan nan nan nan nan nan nan nan nan nan nan nan nan nan nan nan nan nan nan nan nan nan nan nan nan nan nan nan nan nan nan nan nan nan nan nan nan 42 nan nan nan nan nan nan nan nan nan nan nan nan nan 32 nan 34 35 37 39 40 39 nan
nan nan nan nan nan nan nan nan nan nan nan nan nan nan nan nan nan nan nan nan nan nan nan nan nan nan nan nan nan nan nan nan nan nan nan nan nan nan nan nan nan nan nan nan nan nan nan nan nan nan nan nan nan nan nan nan nan nan nan nan nan nan nan nan nan nan nan nan nan nan nan nan nan nan nan nan nan 30 31 34 36 38 40 38 39
nan nan nan nan nan nan nan nan nan nan nan nan nan nan nan nan nan nan nan nan nan nan nan nan nan nan nan nan nan nan nan nan nan nan nan nan nan nan nan nan nan nan nan nan nan nan nan nan nan nan nan nan nan nan nan nan nan nan nan nan nan nan nan nan nan nan nan nan nan nan nan nan nan nan nan nan nan nan nan 32 33 35 38 38 40
nan nan nan nan nan nan nan nan nan nan nan nan nan nan nan nan nan nan nan nan nan nan nan nan nan nan nan nan nan nan nan nan nan nan nan nan nan nan nan nan nan nan nan nan nan nan nan nan nan nan nan nan nan nan nan nan nan nan nan nan nan nan nan nan 28 nan nan nan nan nan nan nan nan nan nan nan nan nan nan 30 31 31 34 36 38
23 23 nan nan nan nan nan nan nan nan nan nan nan nan nan nan nan nan nan nan nan nan nan nan nan nan nan nan nan nan nan nan nan nan nan nan nan nan nan nan nan nan nan nan nan nan nan nan nan nan nan nan nan nan nan nan nan nan nan nan nan nan nan nan nan nan nan nan nan nan nan nan nan nan nan nan nan nan nan nan 29 29 30 32 34
24 23 nan 25 25 nan nan nan nan nan nan nan nan nan nan nan nan nan nan nan nan nan nan nan nan nan nan nan nan nan nan nan nan nan nan nan nan nan nan nan nan nan nan nan nan nan nan nan nan nan nan nan nan nan nan nan nan nan nan nan nan nan nan nan nan nan nan nan nan nan nan nan nan nan nan nan nan nan nan nan nan nan nan 31 31
27 26 25 26 26 nan nan nan nan nan nan nan nan nan nan nan nan nan nan nan nan nan nan nan nan nan nan nan nan nan nan nan nan nan nan nan nan nan nan nan nan nan nan nan nan nan nan nan nan nan nan nan nan nan nan nan nan nan nan nan nan nan nan nan nan nan nan nan nan nan nan nan nan nan nan nan nan nan nan nan nan nan 30 nan 31
28 29 28 28 28 28 29 nan nan nan nan nan nan nan nan nan nan nan nan nan nan nan nan nan nan nan nan nan nan nan nan nan nan nan nan nan nan nan nan nan nan nan nan nan nan nan nan nan nan nan nan nan nan nan nan nan nan nan nan nan nan nan nan nan nan nan nan nan nan nan nan nan nan nan nan nan nan nan nan nan nan nan 30 30 30
28 30 31 31 31 31 32 nan nan nan nan nan nan nan nan nan nan nan nan nan nan nan nan nan nan nan nan nan nan nan nan nan nan nan nan nan nan nan nan nan nan nan nan nan nan nan nan nan nan nan nan nan nan nan nan nan nan nan nan nan nan nan nan nan nan nan nan nan nan nan nan nan nan nan nan nan nan nan nan nan nan nan 33 30 29
30 31 32 33 35 36 37 nan nan nan nan nan nan nan nan nan nan nan nan nan nan nan nan nan nan nan nan nan nan nan nan nan nan nan nan nan nan nan nan nan nan nan nan nan nan nan nan nan nan nan nan nan nan nan nan nan nan nan nan nan nan nan nan nan nan nan nan nan nan nan nan nan nan nan nan nan nan nan nan nan nan nan nan 34 32
31 32 33 nan 37 nan 41 nan nan nan nan nan nan nan nan nan nan nan nan nan nan nan nan nan nan nan nan nan nan nan nan nan nan nan nan nan nan nan nan nan nan nan nan nan nan nan nan nan nan nan nan nan nan nan nan nan nan nan nan nan nan nan nan nan nan nan nan nan nan nan nan nan nan nan nan nan nan nan nan nan nan nan nan 37 35
32 33 35 40 41 nan 43 nan nan nan nan nan nan nan nan nan nan nan nan nan nan nan nan nan nan nan nan nan nan nan nan nan nan nan nan nan nan nan nan nan nan nan nan nan nan nan nan nan nan nan nan nan nan nan nan nan nan nan nan nan nan nan nan nan nan nan nan nan nan nan nan nan nan nan nan nan nan nan nan nan nan nan nan nan 38
35 37 39 46 49 nan 46 46 47 nan nan nan nan nan nan nan nan nan nan nan nan nan nan nan nan nan nan nan nan nan nan nan nan nan nan nan nan nan nan nan nan nan nan nan nan nan nan nan nan nan nan nan nan nan nan nan nan nan nan nan nan nan nan nan nan nan nan nan nan nan nan nan nan nan nan nan nan nan nan nan nan nan nan nan nan
37 48 53 55 55 nan nan 49 51 48 49 51 nan nan nan nan nan nan nan nan nan nan nan nan nan nan nan nan nan nan nan nan nan nan nan nan nan nan nan nan nan nan nan nan nan nan nan nan nan nan nan nan nan nan nan nan nan nan nan nan nan nan nan nan nan nan nan nan nan nan nan nan nan nan nan nan nan nan nan nan nan nan nan nan nan
47 49 52 52 51 50 51 52 52 51 nan nan nan nan nan nan nan nan nan nan nan nan nan nan nan nan nan nan nan nan nan nan nan nan nan nan nan nan nan nan nan nan nan nan nan nan nan nan nan nan nan nan nan nan nan nan nan nan nan nan nan nan nan nan nan nan nan nan nan nan nan nan nan nan nan nan nan nan nan nan nan nan nan nan nan
44 46 50 51 53 53 56 59 59 nan 58 60 nan nan nan nan nan nan nan nan nan nan nan nan nan nan nan nan nan nan nan nan nan nan nan nan nan nan nan nan nan nan nan nan nan nan nan nan nan nan nan nan nan nan nan nan nan nan nan nan nan nan nan nan nan nan nan nan nan nan nan nan nan nan nan nan nan nan nan nan nan nan nan nan nan
49 48 50 54 55 57 59 61 62 59 59 60 nan nan nan nan nan nan nan nan nan nan nan nan nan nan nan nan nan nan nan nan nan nan nan nan nan nan nan nan nan nan nan nan nan nan nan nan nan nan nan nan nan nan nan nan nan nan nan nan nan nan nan nan nan nan nan nan nan nan nan nan nan nan nan nan nan nan nan nan nan nan nan nan nan
52 53 55 58 60 60 60 60 58 58 58 60 57 57 nan nan nan nan nan nan nan nan nan nan nan nan nan nan nan nan nan nan nan nan nan nan nan nan nan nan nan nan nan nan nan nan nan nan nan nan nan nan nan nan nan nan nan nan nan nan nan nan nan nan nan nan nan nan nan nan nan nan nan nan nan nan nan nan nan nan nan nan nan nan nan
54 55 58 60 62 63 63 63 62 60 59 60 55 nan nan nan nan nan nan nan nan nan nan nan nan nan nan nan nan nan nan nan nan nan nan nan nan nan nan nan nan nan nan nan nan nan nan nan nan nan nan nan nan nan nan nan nan nan nan nan nan nan nan nan nan nan nan nan nan nan nan nan nan nan nan nan nan nan nan nan nan nan nan nan nan
53 56 60 61 63 64 65 65 66 64 61 57 55 nan nan nan nan nan nan nan nan nan nan nan nan nan nan nan nan nan nan nan nan nan nan nan nan nan nan nan nan nan nan nan nan nan nan nan nan nan nan nan nan nan nan nan nan nan nan nan nan nan nan nan nan nan nan nan nan nan nan nan nan nan nan nan nan nan nan nan nan nan nan nan nan
52 56 nan 61 62 64 66 nan nan 62 62 60 nan nan nan nan nan nan nan nan nan nan nan nan nan nan nan nan nan nan nan nan nan nan nan nan nan nan nan nan nan nan nan nan nan nan nan nan nan nan nan nan nan nan nan nan nan nan nan nan nan nan nan nan nan nan nan nan nan nan nan nan nan nan nan nan nan nan nan nan nan nan nan nan nan
50 53 nan 60 62 nan nan nan nan nan nan nan nan nan nan nan nan nan nan nan nan nan nan nan nan nan nan nan nan nan nan nan nan nan nan nan nan nan nan nan nan nan nan nan nan nan nan nan nan nan nan nan nan nan nan nan nan nan nan nan nan nan nan nan nan nan nan nan nan nan nan nan nan nan nan nan nan nan nan nan nan nan nan nan nan
Wind_Direction
248 252 256 260 261 262 267 268 268 261 254 257 244 242 236 232 239 247 254 256 251 236 213 204 211 214 212 208 208 211 211 213 218 222 222 225 222 241 245 234 219 213 211 221 229 236 236 237 nan nan nan nan nan nan nan nan nan nan nan nan nan 243 260 nan nan nan nan nan nan nan nan nan nan nan nan nan nan nan nan nan nan nan nan nan nan
252 250 253 256 262 266 271 272 272 270 254 253 252 244 237 233 235 240 248 255 256 250 228 209 206 216 216 213 213 211 214 212 217 220 224 225 228 237 250 243 231 221 214 211 226 235 241 242 244 246 nan nan nan nan nan nan nan nan nan nan nan 241 252 nan nan nan nan nan nan nan nan nan nan nan nan nan nan nan nan nan nan nan nan nan nan
256 254 255 254 260 265 268 274 278 277 272 259 247 241 238 234 234 240 244 247 255 257 246 224 211 211 217 215 217 215 216 214 214 218 219 224 228 231 245 249 244 235 223 220 219 230 240 245 247 246 250 nan nan nan nan nan nan nan nan nan 246 244 246 258 nan nan nan nan nan nan nan nan nan nan nan nan nan nan nan nan nan nan nan nan nan
261 261 258 259 257 262 266 268 278 283 282 268 256 250 243 237 240 238 239 245 249 251 249 237 220 213 216 216 219 219 220 219 217 217 220 223 224 226 233 244 252 246 241 231 225 225 233 243 248 247 248 250 nan nan nan nan nan nan nan nan nan nan nan 253 nan nan nan nan nan nan nan nan nan nan nan nan nan nan nan nan nan nan nan nan nan
264 263 259 257 255 262 264 265 275 280 273 271 256 256 248 249 250 247 244 245 245 247 250 242 230 221 217 217 219 222 nan 222 221 217 218 225 225 227 229 234 243 256 252 247 242 231 231 237 240 245 247 249 250 nan nan nan nan nan nan nan nan nan nan 249 255 nan nan nan nan nan nan nan nan nan nan nan nan nan nan nan nan nan nan nan nan
261 262 258 257 257 260 261 263 274 276 266 268 267 255 242 244 257 254 250 248 244 242 242 240 230 225 221 219 223 224 224 223 225 223 221 222 225 225 227 231 234 240 245 257 252 248 241 236 235 240 242 250 250 252 253 nan nan nan nan nan nan nan nan nan 250 263 nan nan nan nan nan nan nan nan nan nan nan nan nan nan nan nan nan nan nan
257 257 255 251 252 257 263 264 271 268 267 270 275 276 262 249 252 260 252 248 245 238 235 229 226 220 220 221 221 229 229 226 225 226 226 225 225 227 227 228 231 231 235 243 254 257 253 249 241 239 240 249 249 251 251 252 nan nan nan nan nan nan nan nan nan 260 nan nan nan nan nan nan nan nan nan nan nan nan nan nan nan nan nan nan nan
252 254 254 252 250 254 260 263 269 269 269 269 267 270 269 255 254 253 254 247 241 247 238 231 223 214 215 219 221 224 227 229 229 228 227 226 nan nan 229 230 231 232 230 229 241 251 260 258 254 247 243 245 252 248 249 252 256 nan nan nan nan nan nan nan nan 260 269 nan nan nan nan nan nan nan nan nan nan nan nan nan nan nan nan nan nan
251 253 252 252 252 251 258 268 272 271 269 264 266 262 257 258 253 248 249 247 241 235 248 246 240 223 217 210 222 223 222 228 230 231 nan nan nan nan nan 231 232 233 233 233 233 241 264 263 262 259 253 248 249 251 250 251 250 259 260 nan nan nan nan nan nan nan 267 nan nan nan nan nan nan nan nan nan nan nan nan nan nan nan nan nan nan
251 253 256 253 254 257 260 266 271 269 271 271 268 266 265 259 258 251 248 248 244 242 239 238 233 222 221 223 215 225 223 222 227 230 230 nan nan nan nan 230 232 235 235 233 233 236 244 261 266 265 264 263 258 256 257 255 254 254 259 nan nan nan nan nan nan nan nan 269 nan nan nan nan nan nan nan nan nan nan nan nan nan nan nan nan nan
252 253 253 258 260 260 256 258 265 272 272 268 265 264 265 266 263 256 253 248 242 240 239 239 233 220 220 224 224 219 226 224 226 228 231 230 nan nan 232 234 235 237 238 238 238 238 239 244 251 252 259 272 270 268 273 267 260 258 260 258 259 266 268 265 nan nan nan 268 271 nan nan nan nan nan nan nan nan nan nan nan nan nan nan nan nan
252 253 255 257 262 263 265 263 262 267 269 271 267 263 263 264 264 262 261 258 253 245 239 240 235 230 224 223 223 226 nan 222 218 224 225 225 228 230 227 228 232 234 237 239 239 239 240 241 243 249 248 271 281 275 277 277 275 269 260 259 261 263 271 272 269 265 nan nan 275 276 nan nan nan nan nan nan nan nan nan nan nan nan nan nan nan
251 254 257 259 259 263 268 269 271 267 266 267 269 268 263 260 258 260 263 263 257 253 247 244 247 241 238 231 227 227 233 234 220 218 224 226 227 228 230 229 228 229 233 238 241 243 245 242 244 nan 248 251 272 283 280 279 282 283 284 277 261 263 270 276 277 274 272 nan nan 284 281 nan nan nan nan nan nan nan nan nan nan nan nan nan nan
nan 256 255 256 260 264 265 269 270 270 270 271 268 266 266 265 263 260 263 265 260 254 250 253 251 248 242 238 232 235 233 234 236 nan 227 225 223 226 227 227 230 234 232 234 239 243 nan 249 247 246 247 nan 255 262 266 270 275 283 287 288 283 271 265 271 279 278 276 276 nan 286 284 nan nan nan nan nan nan nan nan nan nan nan nan nan nan
nan nan nan nan 258 258 263 263 268 271 272 272 271 269 267 267 269 265 265 270 268 261 261 260 256 250 251 247 241 236 235 235 233 nan 229 nan nan 220 224 225 226 232 235 236 237 240 243 245 249 252 248 246 nan nan 257 261 260 280 286 284 284 278 271 266 270 276 274 274 273 283 286 288 nan nan nan nan nan nan nan nan nan nan nan nan nan
nan nan nan nan nan 262 263 264 266 266 269 267 266 264 262 264 267 266 265 267 270 267 268 270 259 257 256 258 250 nan nan 231 233 234 nan nan nan 221 226 226 228 230 234 235 239 240 242 243 245 248 249 247 246 nan nan nan 263 274 279 277 274 271 271 269 263 265 273 277 273 276 285 287 nan nan nan nan nan nan nan nan nan nan nan nan nan
nan nan nan nan nan nan nan nan nan nan nan nan nan nan 265 263 261 265 268 262 265 262 264 269 270 261 257 258 255 248 230 229 233 231 231 229 nan nan 225 230 230 233 236 239 237 240 242 244 245 245 246 246 246 246 245 nan nan 254 262 268 269 267 266 264 262 264 267 267 270 276 283 287 292 nan nan nan nan nan nan nan nan nan nan nan nan
nan nan nan nan nan nan nan nan nan nan nan nan nan nan nan nan 257 257 260 260 257 262 263 264 264 268 263 259 262 255 244 237 240 237 233 229 227 227 223 215 232 235 238 240 240 240 244 244 247 246 245 246 246 245 247 248 249 249 249 259 271 270 267 265 264 265 266 269 270 271 278 290 292 294 nan nan nan nan nan nan nan nan nan nan nan
nan nan nan nan nan nan nan nan nan nan nan nan nan nan nan nan nan nan 254 254 254 256 261 257 258 264 263 269 271 268 258 253 245 239 233 226 223 225 227 220 219 225 230 236 242 244 243 242 246 248 250 250 248 246 245 247 248 246 250 250 270 274 272 270 267 267 270 267 267 276 276 286 293 294 nan nan nan nan nan nan nan nan nan nan nan
nan nan nan nan nan nan nan nan nan nan nan nan nan nan nan nan nan nan nan nan nan 255 255 nan 256 261 260 262 267 262 270 260 248 238 231 221 219 223 225 223 223 222 230 237 238 239 243 244 246 252 254 252 252 249 246 245 247 251 254 257 256 261 265 268 268 266 264 264 264 264 276 282 293 292 293 nan nan nan nan nan nan nan nan nan nan
nan nan nan nan nan nan nan nan nan nan nan nan nan nan nan nan nan nan nan nan nan nan nan nan nan nan nan nan 263 269 267 265 264 259 249 231 213 214 220 226 230 232 235 237 241 244 246 247 247 245 249 255 253 251 248 246 245 247 248 259 262 262 nan 265 265 266 266 265 263 264 270 274 285 289 290 nan nan nan nan nan nan nan nan nan nan
nan nan nan nan nan nan nan nan nan nan nan nan nan nan nan nan nan nan nan nan nan nan nan nan nan nan nan nan nan nan nan nan nan nan nan 253 nan nan nan nan 228 244 243 nan nan 252 250 251 251 254 256 257 255 251 249 247 246 247 249 254 260 261 nan nan nan nan 267 268 266 267 265 269 281 287 293 296 nan nan nan nan nan nan nan nan nan
nan nan nan nan nan nan nan nan nan nan nan nan nan nan nan nan nan nan nan nan nan nan nan nan nan nan nan nan nan nan nan nan nan nan nan nan nan nan nan nan nan nan nan nan nan nan nan nan nan nan 257 259 256 250 249 248 245 244 246 251 255 261 nan nan nan nan nan 270 nan nan 265 267 274 282 290 296 299 nan nan nan nan nan nan nan nan
nan nan nan nan nan nan nan nan nan nan nan nan nan nan nan nan nan nan nan nan nan nan nan nan nan nan nan nan nan nan nan nan nan nan nan nan nan nan nan nan nan nan nan nan nan nan nan nan nan nan nan nan 254 247 244 245 249 253 248 250 nan 255 nan nan nan nan nan nan nan nan nan 269 275 283 287 293 295 298 300 nan nan nan nan nan nan
nan nan nan nan nan nan nan nan nan nan nan nan nan nan nan nan nan nan nan nan nan nan nan nan nan nan nan nan nan nan nan nan nan nan nan nan nan nan nan nan nan nan nan nan nan nan nan nan nan nan nan 266 254 247 243 245 243 257 256 250 255 nan nan nan nan nan nan nan nan nan nan nan 271 281 288 293 297 298 301 303 299 nan nan nan nan
nan nan nan nan nan nan nan nan nan nan nan nan nan nan nan nan nan nan nan nan nan nan nan nan nan nan nan nan nan nan nan nan nan nan nan nan nan nan nan nan nan nan nan nan nan nan nan nan nan nan nan nan nan nan 247 242 246 260 nan 250 259 264 263 nan nan nan nan nan nan nan nan nan nan 266 275 285 295 293 294 293 292 294 nan nan nan
nan nan nan nan nan nan nan nan nan nan nan nan nan nan nan nan nan nan nan nan nan nan nan nan nan nan nan nan nan nan nan nan nan nan nan nan nan nan nan nan nan nan nan nan nan nan nan nan nan nan nan nan nan nan nan 253 nan 260 nan 259 257 265 269 nan nan nan nan nan nan nan nan nan nan nan nan nan 267 289 290 291 291 293 nan nan nan
nan nan nan nan nan nan nan nan nan nan nan nan nan nan nan nan nan nan nan nan nan nan nan nan nan nan nan nan nan nan nan nan nan nan nan nan nan nan nan nan nan nan nan nan nan nan nan nan nan nan nan nan nan nan nan nan 252 261 nan 258 259 265 275 nan nan nan nan nan nan nan nan nan nan nan nan nan nan 270 289 289 291 291 nan nan nan
nan nan nan nan nan nan nan nan nan nan nan nan nan nan nan nan nan nan nan nan nan nan nan nan nan nan nan nan nan nan nan nan nan nan nan nan nan nan nan nan nan nan nan nan nan nan nan nan nan nan nan nan nan nan nan nan nan nan nan nan nan 261 nan nan nan nan nan nan nan nan nan nan nan nan nan nan nan nan nan 288 291 295 293 nan nan
nan nan nan nan nan nan nan nan nan nan nan nan nan nan nan nan nan nan nan nan nan nan nan nan nan nan nan nan nan nan nan nan nan nan nan nan nan nan nan nan nan nan nan nan nan nan nan nan nan nan nan nan nan nan nan nan nan nan nan nan nan nan 268 nan nan nan nan nan nan nan nan nan nan nan nan nan 269 nan 272 282 289 290 294 296 nan
nan nan nan nan nan nan nan nan nan nan nan nan nan nan nan nan nan nan nan nan nan nan nan nan nan nan nan nan nan nan nan nan nan nan nan nan nan nan nan nan nan nan nan nan nan nan nan nan nan nan nan nan nan nan nan nan nan nan nan nan nan nan nan nan nan nan nan nan nan nan nan nan nan nan nan nan nan 272 273 279 286 291 293 297 297
nan nan nan nan nan nan nan nan nan nan nan nan nan nan nan nan nan nan nan nan nan nan nan nan nan nan nan nan nan nan nan nan nan nan nan nan nan nan nan nan nan nan nan nan nan nan nan nan nan nan nan nan nan nan nan nan nan nan nan nan nan nan nan nan nan nan nan nan nan nan nan nan nan nan nan nan nan nan nan 277 286 294 296 296 295
nan nan nan nan nan nan nan nan nan nan nan nan nan nan nan nan nan nan nan nan nan nan nan nan nan nan nan nan nan nan nan nan nan nan nan nan nan nan nan nan nan nan nan nan nan nan nan nan nan nan nan nan nan nan nan nan nan nan nan nan nan nan nan nan 269 nan nan nan nan nan nan nan nan nan nan nan nan nan nan 283 287 293 295 298 298
287 290 nan nan nan nan nan nan nan nan nan nan nan nan nan nan nan nan nan nan nan nan nan nan nan nan nan nan nan nan nan nan nan nan nan nan nan nan nan nan nan nan nan nan nan nan nan nan nan nan nan nan nan nan nan nan nan nan nan nan nan nan nan nan nan nan nan nan nan nan nan nan nan nan nan nan nan nan nan nan 289 291 295 297 300
286 289 nan 291 293 nan nan nan nan nan nan nan nan nan nan nan nan nan nan nan nan nan nan nan nan nan nan nan nan nan nan nan nan nan nan nan nan nan nan nan nan nan nan nan nan nan nan nan nan nan nan nan nan nan nan nan nan nan nan nan nan nan nan nan nan nan nan nan nan nan nan nan nan nan nan nan nan nan nan nan nan nan nan 298 300
288 290 292 293 292 nan nan nan nan nan nan nan nan nan nan nan nan nan nan nan nan nan nan nan nan nan nan nan nan nan nan nan nan nan nan nan nan nan nan nan nan nan nan nan nan nan nan nan nan nan nan nan nan nan nan nan nan nan nan nan nan nan nan nan nan nan nan nan nan nan nan nan nan nan nan nan nan nan nan nan nan nan 294 nan 301
290 290 290 293 293 294 292 nan nan nan nan nan nan nan nan nan nan nan nan nan nan nan nan nan nan nan nan nan nan nan nan nan nan nan nan nan nan nan nan nan nan nan nan nan nan nan nan nan nan nan nan nan nan nan nan nan nan nan nan nan nan nan nan nan nan nan nan nan nan nan nan nan nan nan nan nan nan nan nan nan nan nan 293 295 298
290 289 290 290 290 293 291 nan nan nan nan nan nan nan nan nan nan nan nan nan nan nan nan nan nan nan nan nan nan nan nan nan nan nan nan nan nan nan nan nan nan nan nan nan nan nan nan nan nan nan nan nan nan nan nan nan nan nan nan nan nan nan nan nan nan nan nan nan nan nan nan nan nan nan nan nan nan nan nan nan nan nan 293 295 296
288 288 288 289 288 289 289 nan nan nan nan nan nan nan nan nan nan nan nan nan nan nan nan nan nan nan nan nan nan nan nan nan nan nan nan nan nan nan nan nan nan nan nan nan nan nan nan nan nan nan nan nan nan nan nan nan nan nan nan nan nan nan nan nan nan nan nan nan nan nan nan nan nan nan nan nan nan nan nan nan nan nan nan 292 293
286 286 286 nan 287 nan 289 nan nan nan nan nan nan nan nan nan nan nan nan nan nan nan nan nan nan nan nan nan nan nan nan nan nan nan nan nan nan nan nan nan nan nan nan nan nan nan nan nan nan nan nan nan nan nan nan nan nan nan nan nan nan nan nan nan nan nan nan nan nan nan nan nan nan nan nan nan nan nan nan nan nan nan nan 285 287
282 282 283 286 289 nan 290 nan nan nan nan nan nan nan nan nan nan nan nan nan nan nan nan nan nan nan nan nan nan nan nan nan nan nan nan nan nan nan nan nan nan nan nan nan nan nan nan nan nan nan nan nan nan nan nan nan nan nan nan nan nan nan nan nan nan nan nan nan nan nan nan nan nan nan nan nan nan nan nan nan nan nan nan nan 280
282 283 285 285 284 nan 288 293 292 nan nan nan nan nan nan nan nan nan nan nan nan nan nan nan nan nan nan nan nan nan nan nan nan nan nan nan nan nan nan nan nan nan nan nan nan nan nan nan nan nan nan nan nan nan nan nan nan nan nan nan nan nan nan nan nan nan nan nan nan nan nan nan nan nan nan nan nan nan nan nan nan nan nan nan nan
279 278 282 279 277 nan nan 292 293 291 290 283 nan nan nan nan nan nan nan nan nan nan nan nan nan nan nan nan nan nan nan nan nan nan nan nan nan nan nan nan nan nan nan nan nan nan nan nan nan nan nan nan nan nan nan nan nan nan nan nan nan nan nan nan nan nan nan nan nan nan nan nan nan nan nan nan nan nan nan nan nan nan nan nan nan
277 278 280 283 286 286 286 286 285 284 nan nan nan nan nan nan nan nan nan nan nan nan nan nan nan nan nan nan nan nan nan nan nan nan nan nan nan nan nan nan nan nan nan nan nan nan nan nan nan nan nan nan nan nan nan nan nan nan nan nan nan nan nan nan nan nan nan nan nan nan nan nan nan nan nan nan nan nan nan nan nan nan nan nan nan
277 280 281 281 282 283 281 281 279 nan 280 285 nan nan nan nan nan nan nan nan nan nan nan nan nan nan nan nan nan nan nan nan nan nan nan nan nan nan nan nan nan nan nan nan nan nan nan nan nan nan nan nan nan nan nan nan nan nan nan nan nan nan nan nan nan nan nan nan nan nan nan nan nan nan nan nan nan nan nan nan nan nan nan nan nan
277 278 280 283 282 280 280 280 278 279 279 283 nan nan nan nan nan nan nan nan nan nan nan nan nan nan nan nan nan nan nan nan nan nan nan nan nan nan nan nan nan nan nan nan nan nan nan nan nan nan nan nan nan nan nan nan nan nan nan nan nan nan nan nan nan nan nan nan nan nan nan nan nan nan nan nan nan nan nan nan nan nan nan nan nan
278 278 280 281 281 281 283 282 281 279 276 280 281 283 nan nan nan nan nan nan nan nan nan nan nan nan nan nan nan nan nan nan nan nan nan nan nan nan nan nan nan nan nan nan nan nan nan nan nan nan nan nan nan nan nan nan nan nan nan nan nan nan nan nan nan nan nan nan nan nan nan nan nan nan nan nan nan nan nan nan nan nan nan nan nan
276 277 278 278 279 281 280 279 278 277 276 282 283 nan nan nan nan nan nan nan nan nan nan nan nan nan nan nan nan nan nan nan nan nan nan nan nan nan nan nan nan nan nan nan nan nan nan nan nan nan nan nan nan nan nan nan nan nan nan nan nan nan nan nan nan nan nan nan nan nan nan nan nan nan nan nan nan nan nan nan nan nan nan nan nan
274 276 277 277 277 278 278 276 275 275 279 285 286 nan nan nan nan nan nan nan nan nan nan nan nan nan nan nan nan nan nan nan nan nan nan nan nan nan nan nan nan nan nan nan nan nan nan nan nan nan nan nan nan nan nan nan nan nan nan nan nan nan nan nan nan nan nan nan nan nan nan nan nan nan nan nan nan nan nan nan nan nan nan nan nan
271 273 nan 274 275 274 274 nan nan 277 280 285 nan nan nan nan nan nan nan nan nan nan nan nan nan nan nan nan nan nan nan nan nan nan nan nan nan nan nan nan nan nan nan nan nan nan nan nan nan nan nan nan nan nan nan nan nan nan nan nan nan nan nan nan nan nan nan nan nan nan nan nan nan nan nan nan nan nan nan nan nan nan nan nan nan
269 271 nan 271 270 nan nan nan nan nan nan nan nan nan nan nan nan nan nan nan nan nan nan nan nan nan nan nan nan nan nan nan nan nan nan nan nan nan nan nan nan nan nan nan nan nan nan nan nan nan nan nan nan nan nan nan nan nan nan nan nan nan nan nan nan nan nan nan nan nan nan nan nan nan nan nan nan nan nan nan nan nan nan nan nan